Sturgis, MI

6:55 PM EST on December 14, 2019 (GMT -0500)
Kirsch Municipal

Weather History for KIRS - October, 2019

Change the Weather History Date:

Thursday, October 24, 2019

  Actual Average (KHAI) Record (KHAI)
Temperature  
Mean Temperature 51 °F -  
Max Temperature 57 °F 60 °F 78 °F (1963)
Min Temperature 45 °F 37 °F 22 °F (1969)
Degree Days  
Heating Degree Days 14    
Growing Degree Days 1 (Base 50)    
Moisture  
Dew Point 37 °F    
Average Humidity 63    
Maximum Humidity 88    
Minimum Humidity 40    
Precipitation  
Precipitation 0.00 in - - ()
Sea Level Pressure  
Sea Level Pressure 30.19 in    
Wind  
Wind Speed 8 mph ()    
Max Wind Speed 16 mph    
Max Gust Speed 22 mph    
Visibility 9.8 miles    
Events      
Averages and records for this station are not official NWS values.
T = Trace of Precipitation, MM = Missing Value Source: Averaged Metar Reports

Daily Weather History Graph

Daily Weather History Graph

Search for Another Location

Airport or City:

Astronomy

Oct. 24, 2019 Rise Set
Actual Time 8:04 AM EDT 6:47 PM EDT
Civil Twilight 7:35 AM EDT 7:15 PM EDT
Nautical Twilight 7:03 AM EDT 7:48 PM EDT
Astronomical Twilight 6:30 AM EDT 8:20 PM EDT
Moon 3:27 AM EDT (10/24) 5:18 PM EDT (10/24)
Length of Visible Light 11h 39m
Length of Day
10h 42m
Waning Crescent, 17% of the Moon is Illuminated
Oct 24
Waning Crescent
Oct 27
New
Nov 4
First Quarter
Nov 12
Full
Nov 19
Last Quarter

Hourly Weather History & Observations

Time (EDT) Temp. Windchill Dew Point Humidity Pressure Visibility Wind Dir Wind Speed Gust Speed Precip Events Conditions
12:15 AM 57.2 °F - 33.1 °F 40% 29.96 in 10.0 mi SSW 15.0 mph 20.7 mph N/A   Overcast
12:38 AM 57.4 °F - 32.9 °F 40% 29.96 in 10.0 mi SSW 15.0 mph 21.9 mph N/A   Overcast
12:56 AM 56.8 °F - 33.3 °F 41% 29.95 in 10.0 mi SSW 13.8 mph 19.6 mph N/A   Mostly Cloudy
1:15 AM 56.8 °F - 33.3 °F 41% 29.95 in 10.0 mi SSW 16.1 mph 21.9 mph N/A   Mostly Cloudy
1:16 AM 56.8 °F - 33.3 °F 41% 29.95 in 10.0 mi SSW 16.1 mph 20.7 mph N/A   Mostly Cloudy
1:35 AM 56.7 °F - 34.0 °F 42% 29.96 in 10.0 mi SW 13.8 mph 20.7 mph N/A   Overcast
1:36 AM 56.7 °F - 34.0 °F 42% 29.96 in 10.0 mi SW 12.7 mph 20.7 mph N/A   Overcast
1:59 AM 56.5 °F - 34.5 °F 44% 29.98 in 10.0 mi WSW 11.5 mph - N/A   Overcast
2:17 AM 57.2 °F - 34.3 °F 42% 29.98 in 10.0 mi WSW 12.7 mph 19.6 mph N/A   Mostly Cloudy
2:35 AM 56.5 °F - 34.9 °F 44% 29.98 in 10.0 mi SW 9.2 mph - N/A   Scattered Clouds
2:36 AM 56.3 °F - 35.1 °F 45% 29.98 in 10.0 mi SW 9.2 mph - N/A   Scattered Clouds
2:55 AM 55.0 °F - 36.0 °F 49% 29.99 in 10.0 mi SW 9.2 mph - N/A   Clear
2:56 AM 55.0 °F - 36.0 °F 49% 29.99 in 10.0 mi SW 9.2 mph - N/A   Clear
3:15 AM 54.5 °F - 36.3 °F 50% 30.00 in 10.0 mi SW 10.4 mph - N/A   Clear
3:37 AM 54.5 °F - 36.7 °F 51% 30.01 in 10.0 mi SW 9.2 mph - N/A   Mostly Cloudy
3:56 AM 54.3 °F - 37.2 °F 52% 30.01 in 10.0 mi WSW 6.9 mph - N/A   Overcast
4:15 AM 52.5 °F - 37.4 °F 56% 30.02 in 10.0 mi WSW 6.9 mph - N/A   Mostly Cloudy
4:16 AM 52.3 °F - 37.6 °F 57% 30.02 in 10.0 mi WSW 6.9 mph - N/A   Mostly Cloudy
4:35 AM 51.4 °F - 37.8 °F 60% 30.03 in 10.0 mi WSW 5.8 mph - N/A   Scattered Clouds
4:36 AM 51.4 °F - 37.8 °F 60% 30.03 in 10.0 mi WSW 5.8 mph - N/A   Scattered Clouds
4:59 AM 51.1 °F - 37.9 °F 61% 30.04 in 10.0 mi West 4.6 mph - N/A   Scattered Clouds
5:17 AM 50.4 °F - 39.2 °F 66% 30.04 in 10.0 mi NW 3.5 mph - N/A   Clear
5:35 AM 48.4 °F - 39.6 °F 72% 30.06 in 10.0 mi NNW 4.6 mph - N/A   Clear
5:56 AM 47.8 °F - 41.4 °F 78% 30.07 in 10.0 mi North 4.6 mph - N/A   Scattered Clouds
6:15 AM 46.8 °F - 41.9 °F 83% 30.07 in 10.0 mi North 3.5 mph - N/A   Scattered Clouds
6:20 AM 46.8 °F - 41.9 °F 83% 30.08 in 10.0 mi Calm Calm - N/A   Scattered Clouds
6:56 AM 45.7 °F 42.7 °F 42.1 °F 87% 30.11 in 10.0 mi NNW 5.8 mph - N/A   Scattered Clouds
7:15 AM 46.6 °F - 42.8 °F 87% 30.12 in 7.0 mi NNW 5.8 mph - N/A   Overcast
7:16 AM 46.6 °F - 42.8 °F 87% 30.12 in 7.0 mi NNW 4.6 mph - N/A   Overcast
7:35 AM 46.6 °F - 43.0 °F 87% 30.13 in 7.0 mi North 8.1 mph - N/A   Overcast
7:36 AM 46.4 °F 42.9 °F 42.8 °F 87% 30.13 in 7.0 mi North 6.9 mph - N/A   Overcast
7:59 AM 45.9 °F 42.9 °F 42.4 °F 88% 30.14 in 7.0 mi NNW 5.8 mph - N/A   Overcast
8:35 AM 46.9 °F - 42.6 °F 85% 30.16 in 7.0 mi NNW 6.9 mph - N/A   Overcast
8:55 AM 46.9 °F - 41.9 °F 83% 30.19 in 10.0 mi NNW 5.8 mph - N/A   Overcast
9:15 AM 47.3 °F - 41.2 °F 79% 30.20 in 10.0 mi North 10.4 mph - N/A   Overcast
9:38 AM 47.5 °F - 41.0 °F 78% 30.21 in 10.0 mi North 8.1 mph - N/A   Overcast
9:56 AM 47.7 °F - 40.3 °F 76% 30.22 in 10.0 mi North 9.2 mph - N/A   Overcast
10:15 AM 48.4 °F - 40.5 °F 74% 30.22 in 10.0 mi NNW 4.6 mph - N/A   Overcast
10:16 AM 48.4 °F - 40.5 °F 74% 30.22 in 10.0 mi North 5.8 mph - N/A   Overcast
10:35 AM 48.9 °F - 40.3 °F 72% 30.23 in 10.0 mi North 6.9 mph - N/A   Overcast
10:59 AM 49.5 °F - 39.6 °F 69% 30.23 in 10.0 mi North 6.9 mph - N/A   Overcast
11:17 AM 50.2 °F - 39.7 °F 67% 30.24 in 10.0 mi North 5.8 mph - N/A   Overcast
11:36 AM 50.0 °F - 39.4 °F 67% 30.24 in 10.0 mi North 8.1 mph - N/A   Mostly Cloudy
11:55 AM 50.9 °F - 39.0 °F 64% 30.24 in 10.0 mi NNW 5.8 mph - N/A   Scattered Clouds
12:15 PM 50.7 °F - 37.9 °F 62% 30.25 in 10.0 mi North 5.8 mph - N/A   Mostly Cloudy
12:20 PM 51.1 °F - 37.4 °F 60% 30.25 in 10.0 mi NNW 4.6 mph - N/A   Mostly Cloudy
12:38 PM 51.4 °F - 37.2 °F 58% 30.25 in 10.0 mi North 5.8 mph - N/A   Overcast
12:56 PM 52.2 °F - 37.4 °F 57% 30.25 in 10.0 mi NW 5.8 mph - N/A   Overcast
1:15 PM 52.2 °F - 36.9 °F 56% 30.25 in 10.0 mi Calm Calm - N/A   Overcast
2:17 PM 52.3 °F - 37.0 °F 56% 30.26 in 10.0 mi NW 4.6 mph - N/A   Overcast
2:35 PM 52.3 °F - 36.3 °F 54% 30.26 in 10.0 mi Calm Calm - N/A   Overcast
2:55 PM 52.7 °F - 35.6 °F 52% 30.26 in 10.0 mi Calm Calm - N/A   Overcast
2:56 PM 52.5 °F - 35.4 °F 52% 30.25 in 10.0 mi Calm Calm - N/A   Overcast
3:15 PM 54.0 °F - 36.3 °F 51% 30.26 in 10.0 mi West 4.6 mph - N/A   Overcast
3:38 PM 53.2 °F - 35.8 °F 52% 30.26 in 10.0 mi NW 3.5 mph - N/A   Overcast
3:56 PM 53.4 °F - 36.0 °F 52% 30.27 in 10.0 mi Calm Calm - N/A   Overcast
4:15 PM 54.0 °F - 35.8 °F 50% 30.27 in 10.0 mi WNW 5.8 mph - N/A   Overcast
4:16 PM 54.0 °F - 35.6 °F 50% 30.27 in 10.0 mi NW 5.8 mph - N/A   Overcast
4:35 PM 53.4 °F - 35.6 °F 51% 30.26 in 10.0 mi North 6.9 mph - N/A   Scattered Clouds
4:36 PM 53.6 °F - 35.6 °F 51% 30.26 in 10.0 mi NNW 4.6 mph - N/A   Scattered Clouds
4:55 PM 53.6 °F - 36.0 °F 51% 30.27 in 10.0 mi NNW 4.6 mph - N/A   Clear
5:18 PM 52.7 °F - 36.0 °F 53% 30.26 in 10.0 mi NNW 5.8 mph - N/A   Clear
5:36 PM 52.3 °F - 35.8 °F 53% 30.26 in 10.0 mi NW 3.5 mph - N/A   Clear
5:55 PM 51.8 °F - 36.1 °F 55% 30.26 in 10.0 mi NW 4.6 mph - N/A   Clear
5:56 PM 51.8 °F - 36.3 °F 56% 30.26 in 10.0 mi NW 5.8 mph - N/A   Clear
6:15 PM 50.9 °F - 36.5 °F 58% 30.27 in 10.0 mi NNW 5.8 mph - N/A   Clear
6:16 PM 50.9 °F - 36.5 °F 58% 30.27 in 10.0 mi NNW 5.8 mph - N/A   Clear
6:35 PM 50.0 °F - 36.3 °F 59% 30.27 in 10.0 mi NNW 4.6 mph - N/A   Clear
6:57 PM 49.5 °F - 35.8 °F 59% 30.28 in 10.0 mi NNW 4.6 mph - N/A   Clear
7:16 PM 48.4 °F - 36.0 °F 62% 30.28 in 10.0 mi NNW 3.5 mph - N/A   Clear
7:35 PM 47.3 °F - 36.0 °F 65% 30.28 in 10.0 mi NNW 3.5 mph - N/A   Clear
7:36 PM 47.3 °F - 36.0 °F 65% 30.28 in 10.0 mi NNW 3.5 mph - N/A   Clear
7:55 PM 46.4 °F - 36.5 °F 68% 30.28 in 10.0 mi Calm Calm - N/A   Clear
8:19 PM 46.4 °F 45.2 °F 36.7 °F 69% 30.29 in 10.0 mi NW 3.5 mph - N/A   Clear
8:36 PM 45.3 °F - 37.8 °F 75% 30.30 in 10.0 mi Calm Calm - N/A   Clear
8:55 PM 45.5 °F 44.2 °F 37.4 °F 73% 30.31 in 10.0 mi NW 3.5 mph - N/A   Scattered Clouds
8:56 PM 45.5 °F 44.2 °F 37.4 °F 73% 30.31 in 10.0 mi NW 3.5 mph - N/A   Scattered Clouds
9:15 PM 45.9 °F 44.6 °F 36.9 °F 71% 30.31 in 10.0 mi NNW 3.5 mph - N/A   Mostly Cloudy
9:16 PM 45.9 °F 44.6 °F 36.9 °F 71% 30.31 in 10.0 mi NNW 3.5 mph - N/A   Mostly Cloudy
9:35 PM 45.7 °F 44.4 °F 36.9 °F 71% 30.32 in 10.0 mi NW 3.5 mph - N/A   Mostly Cloudy
9:40 PM 45.7 °F 44.4 °F 36.9 °F 71% 30.31 in 10.0 mi NW 3.5 mph - N/A   Overcast
9:57 PM 45.5 °F 43.2 °F 37.0 °F 72% 30.32 in 10.0 mi NNW 4.6 mph - N/A   Overcast
10:16 PM 45.5 °F 44.2 °F 37.0 °F 72% 30.33 in 10.0 mi NNW 3.5 mph - N/A   Overcast
10:35 PM 45.1 °F 43.7 °F 37.8 °F 75% 30.33 in 10.0 mi North 3.5 mph - N/A   Overcast
10:36 PM 45.1 °F 43.7 °F 37.9 °F 76% 30.33 in 10.0 mi North 3.5 mph - N/A   Overcast
10:55 PM 45.5 °F 41.8 °F 37.6 °F 74% 30.34 in 10.0 mi North 6.9 mph - N/A   Overcast
10:56 PM 45.5 °F 41.8 °F 37.4 °F 73% 30.34 in 10.0 mi NNW 6.9 mph - N/A   Overcast
11:19 PM 45.5 °F 42.5 °F 36.7 °F 71% 30.34 in 10.0 mi North 5.8 mph - N/A   Overcast
11:37 PM 45.1 °F 42.0 °F 37.0 °F 73% 30.33 in 10.0 mi North 5.8 mph - N/A   Overcast
11:55 PM 45.1 °F 42.0 °F 36.5 °F 72% 30.33 in 10.0 mi North 5.8 mph - N/A   Overcast
11:56 PM 45.1 °F 42.0 °F 36.5 °F 72% 30.33 in 10.0 mi North 5.8 mph - N/A   Overcast